Carmi, IL

10:53 PM CDT on May 27, 2017 (GMT -0500)
Carmi Municipal

Weather History for KCUL - January, 2013

Change the Weather History Date:

Wednesday, January 2, 2013

  Actual Average (KEHR) Record (KEHR)
Temperature  
Mean Temperature 20 °F -  
Max Temperature 30 °F 40 °F 69 °F (2000)
Min Temperature 9 °F 25 °F -1 °F (1940)
Degree Days  
Heating Degree Days 46    
Moisture  
Dew Point 13 °F    
Average Humidity 79    
Maximum Humidity 94    
Minimum Humidity 44    
Precipitation  
Precipitation 0.00 in - - ()
Sea Level Pressure  
Sea Level Pressure 30.26 in    
Wind  
Wind Speed 0 mph (North)    
Max Wind Speed 5 mph    
Max Gust Speed -    
Visibility 9 miles    
Events      
Averages and records for this station are not official NWS values.
T = Trace of Precipitation, MM = Missing Value Source: NWS Daily Summary

Daily Weather History Graph

Daily Weather History Graph

Search for Another Location

Airport or City:

Trip Planner

Search our weather history database for the weather conditions in past years. The results will help you decide how hot, cold, wet, or windy it might be!

Date:

Astronomy

Jan. 02, 2013 Rise Set
Actual Time 7:08 AM CST 4:44 PM CST
Civil Twilight 6:39 AM CST 5:13 PM CST
Nautical Twilight 6:06 AM CST 5:46 PM CST
Astronomical Twilight 5:34 AM CST 6:18 PM CST
Moon 10:11 PM CST (1/2) 9:55 AM CST (1/2)
Length of Visible Light 10h 34m
Length of Day
9h 35m
Waning Gibbous, 75% of the Moon is Illuminated
Jan 2
Waning Gibbous
Jan 4
Last Quarter
Jan 11
New
Jan 18
First Quarter
Jan 26
Full

Hourly Weather History & Observations

Time (CST) Temp. Windchill Dew Point Humidity Pressure Visibility Wind Dir Wind Speed Gust Speed Precip Events Conditions
12:15 AM 18.9 °F - 14.7 °F 84% 30.23 in 10.0 mi Calm Calm - N/A   Clear
12:35 AM 18.5 °F - 14.4 °F 84% 30.24 in 10.0 mi Calm Calm - N/A   Clear
12:55 AM 18.1 °F - 14.0 °F 84% 30.24 in 10.0 mi Calm Calm - N/A   Clear
1:15 AM 18.5 °F - 14.2 °F 83% 30.24 in 10.0 mi Calm Calm - N/A   Clear
1:35 AM 18.0 °F - 14.0 °F 84% 30.24 in 10.0 mi Calm Calm - N/A   Clear
1:55 AM 17.4 °F - 13.5 °F 84% 30.25 in 10.0 mi Calm Calm - N/A   Clear
2:15 AM 16.3 °F - 12.9 °F 86% 30.27 in 10.0 mi Calm Calm - N/A   Clear
2:35 AM 16.5 °F - 12.6 °F 84% 30.26 in 10.0 mi Calm Calm - N/A   Clear
2:55 AM 16.2 °F - 12.2 °F 84% 30.25 in 10.0 mi Calm Calm - N/A   Clear
3:15 AM 16.0 °F - 12.0 °F 84% 30.26 in 10.0 mi Calm Calm - N/A   Clear
3:35 AM 15.4 °F - 11.7 °F 85% 30.25 in 10.0 mi Calm Calm - N/A   Clear
3:55 AM 13.6 °F - 10.4 °F 87% 30.25 in 10.0 mi Calm Calm - N/A   Clear
4:15 AM 13.8 °F - 10.6 °F 87% 30.24 in 10.0 mi Calm Calm - N/A   Clear
4:35 AM 12.9 °F - 9.7 °F 87% 30.25 in 10.0 mi Calm Calm - N/A   Clear
4:55 AM 13.1 °F - 10.2 °F 88% 30.24 in 10.0 mi Calm Calm - N/A   Clear
5:15 AM 12.0 °F - 9.1 °F 88% 30.26 in 10.0 mi Calm Calm - N/A   Clear
5:35 AM 14.0 °F - 11.1 °F 88% 30.25 in 10.0 mi Calm Calm - N/A   Clear
5:55 AM 13.1 °F - 10.4 °F 89% 30.26 in 10.0 mi Calm Calm - N/A   Clear
6:15 AM 10.6 °F - 8.2 °F 90% 30.27 in 7.0 mi Calm Calm - N/A   Clear
6:35 AM 11.7 °F - 9.7 °F 92% 30.27 in 7.0 mi Calm Calm - N/A   Clear
6:55 AM 10.2 °F - 8.4 °F 92% 30.29 in 7.0 mi Calm Calm - N/A   Clear
7:15 AM 9.5 °F - 8.1 °F 94% 30.29 in 7.0 mi Calm Calm - N/A   Clear
7:35 AM 11.5 °F - 9.7 °F 92% 30.29 in 7.0 mi Calm Calm - N/A   Clear
7:55 AM 12.7 °F - 10.8 °F 92% 30.28 in 7.0 mi Calm Calm - N/A   Clear
8:15 AM 13.8 °F - 11.8 °F 92% 30.30 in 7.0 mi Calm Calm - N/A   Clear
8:35 AM 16.0 °F - 12.9 °F 88% 30.30 in 7.0 mi Calm Calm - N/A   Clear
9:15 AM 19.2 °F - 13.8 °F 80% 30.31 in 7.0 mi Calm Calm - N/A   Clear
9:35 AM 20.8 °F - 13.5 °F 73% 30.31 in 10.0 mi Calm Calm - N/A   Clear
9:55 AM 19.6 °F - 12.9 °F 75% 30.31 in 10.0 mi Calm Calm - N/A   Clear
10:15 AM 19.4 °F - 13.1 °F 76% 30.31 in 10.0 mi Calm Calm - N/A   Clear
10:35 AM 19.8 °F - 13.3 °F 76% 30.30 in 10.0 mi Calm Calm - N/A   Clear
10:55 AM 21.4 °F - 14.0 °F 73% 30.29 in 10.0 mi Calm Calm - N/A   Clear
11:15 AM 21.9 °F - 14.0 °F 72% 30.29 in 7.0 mi Calm Calm - N/A   Clear
11:35 AM 22.8 °F - 14.5 °F 71% 30.29 in 10.0 mi Calm Calm - N/A   Clear
11:55 AM 24.4 °F - 14.9 °F 67% 30.27 in 10.0 mi Calm Calm - N/A   Clear
12:15 PM 24.3 °F - 14.9 °F 68% 30.27 in 10.0 mi Calm Calm - N/A   Clear
12:35 PM 26.4 °F - 12.0 °F 55% 30.25 in 10.0 mi Calm Calm - N/A   Clear
12:55 PM 27.7 °F - 10.9 °F 50% 30.25 in 10.0 mi Calm Calm - N/A   Clear
1:15 PM 26.4 °F - 11.3 °F 53% 30.24 in 10.0 mi Calm Calm - N/A   Clear
1:35 PM 27.3 °F - 11.3 °F 51% 30.23 in 10.0 mi Calm Calm - N/A   Clear
1:55 PM 29.5 °F - 11.8 °F 48% 30.23 in 10.0 mi Calm Calm - N/A   Clear
2:15 PM 30.6 °F - 11.7 °F 45% 30.22 in 10.0 mi Calm Calm - N/A   Clear
2:35 PM 30.7 °F - 10.9 °F 44% 30.23 in 10.0 mi Calm Calm - N/A   Clear
2:55 PM 30.0 °F - 10.4 °F 44% 30.23 in 10.0 mi Calm Calm - N/A   Clear
3:15 PM 27.1 °F - 13.3 °F 56% 30.24 in 10.0 mi Calm Calm - N/A   Clear
3:35 PM 27.5 °F - 14.0 °F 57% 30.24 in 10.0 mi Calm Calm - N/A   Clear
3:55 PM 25.9 °F 20.3 °F 15.3 °F 64% 30.25 in 10.0 mi NW 4.6 mph - N/A   Clear
4:15 PM 25.0 °F 20.7 °F 16.0 °F 69% 30.25 in 10.0 mi NNW 3.5 mph - N/A   Clear
4:35 PM 24.8 °F - 15.4 °F 68% 30.24 in 10.0 mi Calm Calm - N/A   Clear
4:55 PM 22.6 °F 18.0 °F 16.5 °F 77% 30.25 in 10.0 mi NNE 3.5 mph - N/A   Clear
5:15 PM 21.9 °F 17.2 °F 16.3 °F 79% 30.25 in 10.0 mi North 3.5 mph - N/A   Clear
5:35 PM 21.9 °F 15.7 °F 15.4 °F 76% 30.26 in 10.0 mi North 4.6 mph - N/A   Clear
5:55 PM 21.7 °F 17.0 °F 14.9 °F 75% 30.25 in 10.0 mi NNE 3.5 mph - N/A   Clear
6:15 PM 19.4 °F - 14.2 °F 80% 30.26 in 10.0 mi Calm Calm - N/A   Clear
6:35 PM 19.6 °F - 15.1 °F 83% 30.27 in 10.0 mi Calm Calm - N/A   Clear
6:55 PM 19.9 °F 14.9 °F 14.9 °F 81% 30.26 in 10.0 mi ESE 3.5 mph - N/A   Clear
7:15 PM 19.8 °F - 15.8 °F 85% 30.26 in 10.0 mi Calm Calm - N/A   Clear
7:35 PM 19.2 °F - 14.9 °F 83% 30.26 in 10.0 mi Calm Calm - N/A   Clear
7:55 PM 17.6 °F - 14.9 °F 89% 30.25 in 10.0 mi Calm Calm - N/A   Clear
8:15 PM 18.3 °F - 15.6 °F 89% 30.26 in 10.0 mi Calm Calm - N/A   Clear
8:35 PM 18.1 °F - 14.2 °F 84% 30.26 in 10.0 mi Calm Calm - N/A   Clear
8:55 PM 17.2 °F - 12.7 °F 83% 30.26 in 10.0 mi Calm Calm - N/A   Clear
9:15 PM 17.6 °F - 13.3 °F 83% 30.26 in 10.0 mi Calm Calm - N/A   Clear
9:35 PM 18.1 °F - 13.6 °F 83% 30.26 in 10.0 mi Calm Calm - N/A   Clear
9:55 PM 16.3 °F - 13.6 °F 89% 30.27 in 10.0 mi Calm Calm - N/A   Clear
10:15 PM 16.5 °F - 14.0 °F 90% 30.27 in 10.0 mi Calm Calm - N/A   Clear
10:35 PM 14.4 °F - 12.2 °F 91% 30.27 in 10.0 mi Calm Calm - N/A   Clear
10:55 PM 14.2 °F - 12.2 °F 92% 30.27 in 7.0 mi Calm Calm - N/A   Clear
11:15 PM 13.8 °F - 12.0 °F 93% 30.27 in 5.0 mi Calm Calm - N/A   Clear
11:35 PM 14.0 °F - 12.6 °F 94% 30.26 in 5.0 mi Calm Calm - N/A   Clear
11:55 PM 12.2 °F - 10.8 °F 94% 30.26 in 7.0 mi Calm Calm - N/A   Clear